Beale Air Force Base
KBAB : now visible

Airfield :











YOU CAN JOIN US ON...

 
LOGIN :

Register | Disclaimer

   EN    FR    IT 

 









Legend :    VFR   Marginal VFR   IFR   Intensive IFR   Very Intensive IFR
Visi :
Ceiling :
>= 8 km
>= 3000ft
5 to 8 km
1000 to 3000 ft
1500m to 5 km
500 to 1000 ft
800 to 1500m
200 to 500 ft
< 800m
< 200 ft
Symbols :   Thunderstorms  Fog  Heavy snow  Heavy precipitations  Wind > 20 kt






- Airport Elevation : 113 ft


KBAB - Beale Air Force Base

CURRENT METAR :
  • 152358Z AUTO 32004KT 6SM HZ SCT210 16/11 A3025 RMK AO2 SLP247 T01570109 10167 20132 57022 $

EXPIRED METARs :
  • 152258Z AUTO 00000KT 7SM CLR 16/11 A3026 RMK AO2 SLP250 T01640105 $
  • 152158Z AUTO 32008KT 9SM CLR 16/10 A3030 RMK AO2 SLP264 T01590102 $

TAF TAF KBAB
Valid from the 15 at 19:00 until the 17 at 01:00 UTC


151900Z 1519/1701 24007KT 9999 FEW200 QNH3030INS
BECMG 1521/1522 32009KT 9999 FEW200 QNH3023INS
BECMG 1605/1606 VRB05KT 9999 SCT150 QNH3016INS
BECMG 1618/1619 32009KT 9999 SKC QNH3008INS TX18/1523Z TN04/1614Z
KZOA FIR / North America



MET'MAP, your aeronautical weather chart ! - Copyright ORBIFLY December 2007 - Disclaimer

ORBIFLY MET'MAP TEAM :

Programming & Development : Alexandra Zaïnal
Concept & original design : Baudouin d'Aumeries
Assistance for programming : Marc-Olivier Méhu
Technical & hardware support : Manuel Goepfert

Contact : metmap@orbifly.com




SOURCES & CREDITS :

   NOAA       Earth
Advisory